{"data":{"norad_id":61013,"epoch":"2026-09-22T20:04:53.771808Z","epoch_age_seconds":89806,"freshness":"FRESH","line1":"1 61013U 24159C   26265.83673347  .00001177  00000+0  16489-3 0  9990","line2":"2 61013  49.9953 348.9698 0005605 145.9023 214.2277 14.84519751111349","mean_motion":14.84519751,"eccentricity":0.0005605,"inclination_deg":49.9953,"raan_deg":348.9698,"arg_perigee_deg":145.9023,"mean_anomaly_deg":214.2277,"bstar":0.00016489,"rev_number":11134,"period_min":97.001067114802,"perigee_km":611.17398053964,"apogee_km":619.01339213902,"semimajor_km":6993.2306863393,"source":"CELESTRAK","updated_at":"2026-09-23T09:00:20.799033Z"}}